Weather History for Elkins, WV

Change the Weather History Date:

Sunday, May 6, 2012

  Actual Average Record
Temperature  
Mean Temperature 68 °F 55 °F  
Max Temperature 78 °F 69 °F 88 °F (1999)
Min Temperature 57 °F 42 °F 25 °F (1910)
Degree Days  
Heating Degree Days 0 10  
Month to date heating degree days 1 63  
Since 1 July heating degree days 4627 5626  
Cooling Degree Days 3 0  
Month to date cooling degree days 16 0  
Year to date cooling degree days 16 3  
Growing Degree Days 18 (Base 50)    
Moisture  
Dew Point 59 °F    
Average Humidity 74    
Maximum Humidity 97    
Minimum Humidity 50    
Precipitation  
Precipitation 0.00 in 0.16 in 1.08 in (1961)
Month to date precipitation 2.35 0.90  
Year to date precipitation 14.08 14.99  
Snow  
Snow 0.00 in - - ()
Month to date snowfall 0.0  
Since 1 September snowfall 30.6  
Snow Depth 0.00 in    
Sea Level Pressure  
Sea Level Pressure 30.03 in    
Wind  
Wind Speed 3 mph (West)    
Max Wind Speed 13 mph    
Max Gust Speed 17 mph    
Visibility 7 miles    
Events Fog    
T = Trace of Precipitation, MM = Missing Value Source: NWS Daily Summary

Daily Weather History Graph

Daily Weather History Graph

Search for Another Location

Airport:

Trip Planner

Search our weather history database for the weather conditions in past years. The results will help you decide how hot, cold, wet, or windy it might be!

Date:

Astronomy

May. 06, 2012 Rise Set
Actual Time 6:15 AM EDT 8:17 PM EDT
Civil Twilight 5:46 AM EDT 8:46 PM EDT
Nautical Twilight 5:10 AM EDT 9:22 PM EDT
Astronomical Twilight 4:31 AM EDT 10:01 PM EDT
Moon 9:19 PM EDT (5/6) 6:24 AM EDT (5/6)
Length of Visible Light 15h 00m
Length of Day
14h 01m
Full, 100% of the Moon is Illuminated
May 6
Full
May 12
Last Quarter
May 20
New
May 28
First Quarter
Jun 4
Full

Hourly Weather History & Observations

Time (EDT) Temp. Dew Point Humidity Pressure Visibility Wind Dir Wind Speed Gust Speed Precip Events Conditions
12:13 AM 60.8 °F 60.8 °F 100% 30.05 in 0.5 mi Calm Calm - N/A Fog Fog
12:20 AM 60.8 °F 60.8 °F 100% 30.05 in 0.2 mi Calm Calm - N/A Fog Fog
12:32 AM 60.8 °F 60.8 °F 100% 30.05 in 0.5 mi Calm Calm - N/A Fog Fog
12:46 AM 60.8 °F 59.0 °F 94% 30.05 in 2.0 mi Variable 3.5 mph - N/A   Overcast
12:51 AM 60.1 °F 57.9 °F 93% 30.03 in 6.0 mi Calm Calm - N/A   Overcast
1:51 AM 60.1 °F 57.9 °F 93% 30.03 in 7.0 mi Calm Calm - N/A   Overcast
2:07 AM 60.8 °F 57.2 °F 88% 30.04 in 7.0 mi Calm Calm - N/A   Overcast
2:38 AM 60.8 °F 57.2 °F 88% 30.04 in 6.0 mi Calm Calm - N/A   Overcast
2:51 AM 60.1 °F 59.0 °F 96% 30.02 in 4.0 mi SSE 3.5 mph - N/A   Overcast
2:55 AM 60.8 °F 59.0 °F 94% 30.02 in 1.5 mi South 3.5 mph - N/A   Overcast
3:04 AM 60.8 °F 59.0 °F 94% 30.02 in 0.2 mi Variable 3.5 mph - N/A Fog Fog
3:13 AM 60.8 °F 59.0 °F 94% 30.01 in 0.8 mi SE 5.8 mph - N/A   Overcast
3:24 AM 60.8 °F 59.0 °F 94% 30.01 in 1.2 mi Calm Calm - N/A   Overcast
3:51 AM 60.1 °F 59.0 °F 96% 29.99 in 2.0 mi Calm Calm - N/A   Overcast
4:09 AM 60.8 °F 59.0 °F 94% 30.01 in 3.0 mi Calm Calm - N/A   Overcast
4:16 AM 60.8 °F 59.0 °F 94% 30.00 in 4.0 mi Calm Calm - N/A   Overcast
4:32 AM 60.8 °F 57.2 °F 88% 30.00 in 3.0 mi Calm Calm - N/A   Overcast
4:51 AM 59.0 °F 57.9 °F 96% 29.99 in 4.0 mi Calm Calm - N/A   Overcast
5:23 AM 60.8 °F 57.2 °F 88% 30.00 in 7.0 mi South 3.5 mph - N/A   Overcast
5:51 AM 60.1 °F 57.9 °F 93% 30.00 in 7.0 mi Calm Calm - N/A   Overcast
6:51 AM 60.1 °F 57.9 °F 93% 30.02 in 5.0 mi Calm Calm - N/A   Overcast
7:51 AM 61.0 °F 57.0 °F 87% 30.05 in 8.0 mi Calm Calm - N/A   Overcast
8:51 AM 61.0 °F 57.9 °F 90% 30.08 in 8.0 mi Calm Calm - N/A   Overcast
9:20 AM 62.6 °F 57.2 °F 82% 30.10 in 9.0 mi Calm Calm - N/A   Overcast
9:51 AM 62.1 °F 57.9 °F 86% 30.09 in 10.0 mi Calm Calm - N/A   Overcast
10:24 AM 64.4 °F 59.0 °F 83% 30.10 in 10.0 mi Calm Calm - N/A   Overcast
10:51 AM 66.0 °F 59.0 °F 78% 30.09 in 10.0 mi Calm Calm - N/A   Overcast
10:58 AM 66.2 °F 60.8 °F 83% 30.10 in 10.0 mi Calm Calm - N/A   Overcast
11:20 AM 69.8 °F 60.8 °F 73% 30.09 in 10.0 mi Calm Calm - N/A   Mostly Cloudy
11:51 AM 71.1 °F 62.1 °F 73% 30.07 in 10.0 mi Calm Calm - N/A   Partly Cloudy
12:05 PM 71.6 °F 62.6 °F 73% 30.08 in 10.0 mi North 5.8 mph - N/A   Mostly Cloudy
12:36 PM 73.4 °F 60.8 °F 65% 30.07 in 10.0 mi Calm Calm - N/A   Scattered Clouds
12:51 PM 73.9 °F 61.0 °F 64% 30.04 in 10.0 mi WNW 5.8 mph - N/A   Partly Cloudy
1:51 PM 75.9 °F 60.1 °F 58% 30.01 in 10.0 mi WNW 5.8 mph - N/A   Scattered Clouds
2:51 PM 77.0 °F 60.1 °F 56% 30.01 in 10.0 mi NNW 6.9 mph - N/A   Scattered Clouds
3:51 PM 77.0 °F 57.0 °F 50% 30.00 in 10.0 mi WNW 10.4 mph - N/A   Partly Cloudy
4:51 PM 75.9 °F 60.1 °F 58% 30.01 in 10.0 mi WNW 11.5 mph - N/A   Clear
5:51 PM 75.9 °F 55.9 °F 50% 30.00 in 10.0 mi WNW 9.2 mph - N/A   Clear
6:51 PM 73.9 °F 55.0 °F 52% 30.00 in 10.0 mi NW 8.1 mph - N/A   Clear
7:51 PM 68.0 °F 57.9 °F 70% 30.01 in 10.0 mi Calm Calm - N/A   Clear
8:51 PM 62.1 °F 57.9 °F 86% 30.01 in 7.0 mi Calm Calm - N/A   Clear
9:51 PM 60.1 °F 57.0 °F 90% 30.01 in 9.0 mi Calm Calm - N/A   Clear
10:51 PM 61.0 °F 57.0 °F 87% 30.01 in 8.0 mi Calm Calm - N/A   Clear
11:51 PM 57.9 °F 55.9 °F 93% 30.02 in 5.0 mi Calm Calm - N/A   Clear